Tottori current weather conditions

sailwx.info

Wind from 300 at 20 knots

Air temperature 8.0° C
Visibility: greater than 5.4 NM
Dewpoint 1.0° C

Last reported at 2015-Mar-01 12:00 UTC.
Time now 2015-Mar-01 15:08 UTC

Location: N 35°32' E 134°10'.
View on Google Maps.

See reports from other nearby stations

  
Tides and Currents Weather Stations Pressure Air Temp Water Temp Dewpoint Dewpoint Depression Visibility Wind Speed Wind Dir Waves Ship Positions
date/time (UTC)wind fromknots sea level pressurealtimeterstation pressurevisibilityair tempwater tempwave heightnotes
2015-Mar-01 12:00 300 20 5.4 8.0
2015-Mar-01 11:00 300 19 5.4 7.0
2015-Mar-01 10:00 290 17 5.4 6.0
2015-Mar-01 09:00 290 17 5.4 7.0 Light rain showers.
2015-Mar-01 08:00 300 20 5.4 7.0
2015-Mar-01 07:00 310 20 5.4 7.0 Light rain showers.
2015-Mar-01 06:00 250 9 2.7 6.0 Light rain showers. Mist.
2015-Mar-01 05:00 240 9 2.7 6.0 Light rain showers. Mist.
2015-Mar-01 04:00 250 7 2.7 6.0 Light rain showers. Mist.
2015-Mar-01 03:00 270 11 2.7 7.0 Light rain showers. Mist.
2015-Mar-01 02:00 290 12 2.7 7.0 Light rain showers. Mist.
2015-Mar-01 01:00 270 6 2.7 6.0 Light rain showers. Mist.
2015-Mar-01 00:00 250 5 2.7 6.0 Light rain showers. Mist.
2015-Feb-28 23:00 3.8 6.0 Light rain showers.
2015-Feb-28 22:00 240 6 5.4 7.0 Light rain.
2015-Feb-28 21:30 150 8 5.4 8.0 Light rain.
2015-Feb-28 21:10 150 7 5.4 7.0
2015-Feb-28 12:00 110 4 5.4 5.0
2015-Feb-28 11:00 130 4 5.4 6.0
2015-Feb-28 10:00 100 6 5.4 6.0
2015-Feb-28 09:00 040 9 5.4 6.0
2015-Feb-28 08:00 040 11 5.4 6.0
2015-Feb-28 07:00 030 11 5.4 7.0
2015-Feb-28 06:00 040 10 5.4 7.0
2015-Feb-28 05:00 040 10 5.4 7.0
2015-Feb-28 04:00 010 9 5.4 8.0
2015-Feb-28 03:00 030 9 5.4 7.0
2015-Feb-28 02:00 030 8 5.4 7.0
2015-Feb-28 01:00 020 8 5.4 7.0
2015-Feb-28 00:00 030 11 5.4 7.0
2015-Feb-27 23:00 040 14 5.4 6.0
2015-Feb-27 22:00 030 14 5.4 5.0
2015-Feb-27 21:30 030 17 5.4 5.0
2015-Feb-27 21:10 030 16 5.4 5.0